Meteopurmerend
purmerend
Purmerend - Baaienwijk



My webcam  My webcam


waarschuwing voor Onweer Meer informatie blitzortung!


Regen radar Meer informatie rain snow radar


Bezoek onze andere website:

CandyAppleRed WebdesignWebdesign Purmerend Candy Apple Red

MeteopurmerendBlog

Template documentation
and downloads



Onweer van: 19-06-2019 16:00 tot: 23:00 waarschuwing voor: Onweer niveau: Geel info button
Enkele onweersbuien, mogelijk met hagel en windstoten tot ca. 75 km/uur.Verkeer en buitenactiviteiten kunnen hinder ondervinden.Mijd open water en open gebied, schuil niet onder bomen.Volg weerberichten en waarschuwingen.

15 daagse weersverwachting Hamburg (DE)

  • Overzicht
  • Per uur
  • 15 dagen
  • Extra
  • Vergelijk
  • Kaarten
  • Dagkaart
  • Meer »
  • Info
  • Statistieken
  • Directe link
    Temp 6h Neerslag Wind  
 04:52     21:52    Daglengte: 17:00 Vandaag
20:00
26°
 
2
 04:52     21:53    Daglengte: 17:01 Morgen
02:00
19°
 
2
08:00
20°
 
3
14:00
21°
7.0 mm
5
warningclass
20:00
20°
4.3 mm
3
 04:52     21:53    Daglengte: 17:01 Vrijdag 21 Jun
02:00
15°
 
2
08:00
16°
 
3
14:00
20°
 
4
20:00
18°
 
4
 04:52     21:53    Daglengte: 17:01 Zaterdag 22 Jun
02:00
14°
 
2
08:00
14°
 
2
14:00
21°
 
2
Locatie info
Region: Hamburg
Latitude: 53.5538°N
Longitude: 9.9918°E
8 masl
Postcode: 20354
Temp/Neerslag /Baro Onweer/Dauwpunt
    Temp Baro 1h Neerslag Dauwpunt Wind UV Bewolking  
 04:52     21:52    Daglengte: 17:00 Vandaag
19:00
27°
1005.8 hPa
49%
15.6°
4
Windvlaag: 2.4 m/s
64%
20:00
26°
1005.8 hPa
14%
19.1°
2
Windvlaag: 1.3 m/s
68%
21:00
24°
1005.9 hPa
14%
18.8°
2
Windvlaag: 2 m/s
81%
22:00
24°
1006.1 hPa
14%
16.7°
2
Windvlaag: 1.7 m/s
46%
23:00
23°
1006.2 hPa
14%
17.3°
3
Windvlaag: 0.8 m/s
49%
 04:52     21:53    Daglengte: 17:01 Morgen
00:00
21°
1006.3 hPa
73%
17.6°
3
Windvlaag: -0.4 m/s
9%
01:00
20°
1006.4 hPa
59%
17.2°
3
Windvlaag: -0.7 m/s
10%
02:00
19°
1006.5 hPa
14%
17.1°
2
Windvlaag: -0.8 m/s
12%
03:00
19°
1006.3 hPa
14%
17.0°
1
Windvlaag: -0.3 m/s
14%
04:00
18°
1006.6 hPa
14%
16.8°
2
Windvlaag: 0.5 m/s
57%
05:00
18°
1006.7 hPa
14%
16.2°
2
Windvlaag: 0.5 m/s
17%
06:00
18°
1006.9 hPa
14%
16.3°
3
Windvlaag: 0.2 m/s
22%
07:00
19°
1007.3 hPa
20%
16.3°
3
Windvlaag: -0.5 m/s
69%
08:00
20°
1007.6 hPa
21%
16.3°
3
Windvlaag: -0.2 m/s
48%
09:00
20°
1008.0 hPa
72%
17.0°
4
Windvlaag: 0.9 m/s
30%
10:00
21°
1008.4 hPa
82%
16.7°
4
Windvlaag: 1.3 m/s
50%
11:00
21°
1008.8 hPa
82%
16.7°
4
Windvlaag: 1.5 m/s
64% warningclass
12:00
21°
1009.1 hPa 2.2 mm
82%
16.8°
5
Windvlaag: 1.4 m/s
68% warningclass
13:00
22°
1009.5 hPa 1.9 mm
82%
16.9°
5
Windvlaag: 1.3 m/s
77% warningclass
14:00
21°
1009.7 hPa 2.9 mm
82%
16.6°
5
Windvlaag: 1.6 m/s
60% warningclass
15:00
22°
1009.6 hPa 2.2 mm
78%
16.0°
4
Windvlaag: 1.5 m/s
51% warningclass
16:00
21°
1010.0 hPa
76%
16.0°
4
Windvlaag: -0.5 m/s
65%
17:00
21°
1010.3 hPa
25%
15.9°
4
Windvlaag: -0.7 m/s
46%
18:00
21°
1010.3 hPa
25%
15.2°
3
Windvlaag: -0.3 m/s
30%
19:00
20°
1010.7 hPa
25%
14.8°
3
Windvlaag: -0.3 m/s
64%
20:00
20°
1011.0 hPa 2.1 mm
28%
14.4°
3
Windvlaag: -0.4 m/s
83%
21:00
19°
1011.6 hPa
28%
14.5°
3
Windvlaag: -0.9 m/s
72%
22:00
18°
1012.2 hPa
29%
14.4°
2
Windvlaag: -1.2 m/s
75%
23:00
17°
1012.7 hPa
31%
14.3°
2
Windvlaag: -0.8 m/s
62%
 04:52     21:53    Daglengte: 17:01 Vrijdag 21 Jun
00:00
16°
1013.2 hPa
64%
14.1°
2
Windvlaag: -0.3 m/s
46%
01:00
16°
1013.6 hPa
72%
14.0°
2
Windvlaag: -0.1 m/s
64%
02:00
15°
1013.7 hPa
75%
14.1°
2
Windvlaag: 0.1 m/s
59%
03:00
15°
1013.8 hPa
25%
13.9°
2
Windvlaag: 0.5 m/s
33%
04:00
15°
1014.2 hPa
16%
14.3°
2
Windvlaag: 0.2 m/s
28%
05:00
15°
1014.6 hPa
56%
14.2°
2
Windvlaag: -0.2 m/s
37%
06:00
15°
1014.9 hPa
60%
14.0°
2
Windvlaag: -0.1 m/s
32%
07:00
15°
1015.6 hPa
14%
13.5°
2
Windvlaag: 0 m/s
70%
08:00
16°
1016.0 hPa
14%
13.1°
3
Windvlaag: 0.5 m/s
55%
09:00
16°
1016.4 hPa
14%
12.8°
3
Windvlaag: 0.3 m/s
35%
10:00
17°
1016.7 hPa
14%
12.5°
3
Windvlaag: 0.8 m/s
21%
11:00
18°
1016.8 hPa
14%
11.6°
3
Windvlaag: 1.1 m/s
22%
12:00
19°
1016.7 hPa
14%
10.7°
3
Windvlaag: 2.2 m/s
33%
13:00
20°
1016.7 hPa
14%
10.3°
4
Windvlaag: 1.6 m/s
49%
14:00
20°
1016.7 hPa
14%
10.5°
4
Windvlaag: 0.5 m/s
44%
15:00
20°
1017.0 hPa
14%
10.5°
4
Windvlaag: -1.4 m/s
40%
16:00
20°
1017.3 hPa
14%
11.4°
5
Windvlaag: -2.1 m/s
54%
17:00
19°
1018.1 hPa
21%
13.0°
5
Windvlaag: -2.4 m/s
56%
18:00
19°
1018.4 hPa
21%
11.9°
4
Windvlaag: -2 m/s
46%
19:00
19°
1018.8 hPa
21%
10.8°
4
Windvlaag: -1.8 m/s
32%
20:00
18°
1019.4 hPa
21%
10.5°
4
Windvlaag: -1.9 m/s
15%
21:00
17°
1020.0 hPa
21%
9.9°
3
Windvlaag: -1.7 m/s
17%
22:00
16°
1020.7 hPa
21%
9.7°
3
Windvlaag: -1.3 m/s
32%
23:00
15°
1021.1 hPa
21%
9.3°
3
Windvlaag: -0.8 m/s
33%
 04:52     21:53    Daglengte: 17:01 Zaterdag 22 Jun
00:00
14°
1021.8 hPa
21%
9.3°
2
Windvlaag: -0.5 m/s
22%
01:00
14°
1022.2 hPa
21%
9.2°
2
Windvlaag: -0.6 m/s
18%
02:00
14°
1022.4 hPa
21%
9.3°
2
Windvlaag: -0.6 m/s
13%
03:00
13°
1022.7 hPa
21%
9.6°
2
Windvlaag: -0.3 m/s
5%
04:00
11°
1022.9 hPa
21%
9.8°
2
Windvlaag: -0.6 m/s
1%
05:00
11°
1023.2 hPa
21%
9.7°
2
Windvlaag: -0.6 m/s
1%
06:00
11°
1023.6 hPa
21%
9.8°
2
Windvlaag: -0.8 m/s
0%
07:00
13°
1024.1 hPa
21%
10.0°
1
Windvlaag: -0.3 m/s
0%
08:00
14°
1024.5 hPa
21%
9.8°
2
Windvlaag: -1.4 m/s
1%
09:00
15°
1024.5 hPa
22%
10.0°
2
Windvlaag: -3.5 m/s
1%
10:00
16°
1024.4 hPa
21%
9.9°
2
Windvlaag: -3.6 m/s
4%
11:00
18°
1024.4 hPa
21%
10.0°
2
Windvlaag: -3.6 m/s
5%
12:00
19°
1024.4 hPa
21%
10.0°
2
Windvlaag: -3.6 m/s
3%
13:00
20°
1024.3 hPa
21%
9.8°
2
Windvlaag: -3.7 m/s
5%
14:00
21°
1024.2 hPa
21%
9.5°
2
Windvlaag: -1.9 m/s
8%
15:00
21°
1023.9 hPa
21%
10.0°
2
Windvlaag: 4 m/s
12%
16:00
20°
1023.7 hPa
21%
10.5°
2
Windvlaag: 4.3 m/s
9%
17:00
20°
1023.5 hPa
21%
10.9°
3
Windvlaag: 4.3 m/s
9%
18:00
20°
1023.4 hPa
21%
11.1°
3
Windvlaag: 5 m/s
7%
Temp/Neerslag /Baro Onweer/Dauwpunt
    Temp Baro Neerslag Dauwpunt Wind Bewolking  
 04:52     21:52    Daglengte: 17:00 Vandaag
20:00
26°
1005.8 hPa   19.1°
2
68%
23:00
23°
1006.2 hPa   17.3°
3
49%
 04:52     21:53    Daglengte: 17:01 Morgen
02:00
19°
1006.5 hPa   17.1°
2
12%
05:00
18°
1006.7 hPa   16.2°
2
17%
08:00
20°
1007.6 hPa   16.3°
3
48%
11:00
21°
1008.8 hPa   16.7°
4
64% warningclass
14:00
21°
1009.7 hPa 7.0 mm 16.6°
5
60% warningclass
17:00
21°
1010.3 hPa 2.2 mm 15.9°
4
46%
20:00
20°
1011.0 hPa 2.1 mm 14.4°
3
83%
23:00
17°
1012.7 hPa   14.3°
2
62%
 04:52     21:53    Daglengte: 17:01 Vrijdag 21 Jun
02:00
15°
1013.7 hPa   14.1°
2
59%
05:00
15°
1014.6 hPa   14.2°
2
37%
08:00
16°
1016.0 hPa   13.1°
3
55%
11:00
18°
1016.8 hPa   11.6°
3
22%
14:00
20°
1016.7 hPa   10.5°
4
44%
17:00
19°
1018.1 hPa   13.0°
5
56%
20:00
18°
1019.4 hPa   10.5°
4
15%
23:00
15°
1021.1 hPa   9.3°
3
33%
 04:52     21:53    Daglengte: 17:01 Zaterdag 22 Jun
02:00
14°
1022.4 hPa   9.3°
2
13%
05:00
11°
1023.2 hPa   9.7°
2
1%
08:00
14°
1024.5 hPa   9.8°
2
1%
11:00
18°
1024.4 hPa   10.0°
2
5%
14:00
21°
1024.2 hPa   9.5°
2
8%
17:00
20°
1023.5 hPa   10.9°
3
9%
20:00
19°
1023.4 hPa   11.1°
4
3%
23:00
14°
1024.7 hPa 10.7 mm 9.2°
3
2%
 04:53     21:53    Daglengte: 17:00 Zondag 23 Jun
02:00
12°
1025.2 hPa 10.7 mm 8.1°
2
1%
05:00
13°
1025.6 hPa 10.7 mm 8.7°
2
8%
08:00
15°
1025.9 hPa 10.7 mm 9.6°
3
16%
11:00
19°
1025.9 hPa 10.7 mm 9.7°
3
25%
14:00
22°
1025.8 hPa 10.7 mm 9.0°
3
34%
17:00
21°
1025.5 hPa 10.7 mm 10.5°
4
46%
20:00
19°
1025.2 hPa 10.7 mm 11.8°
4
57%
23:00
16°
1026.1 hPa 10.7 mm 10.4°
4
72%
 04:53     21:53    Daglengte: 17:00 Maandag 24 Jun
02:00
14°
1026.8 hPa 10.7 mm 8.6°
3
87%
05:00
15°
1026.9 hPa 10.7 mm 8.6°
3
48%
08:00
16°
1027.1 hPa 10.7 mm 8.9°
4
9%
11:00
20°
1026.8 hPa 10.7 mm 9.8°
4
5%
14:00
24°
1026.5 hPa 10.7 mm 9.6°
3
0%
17:00
22°
1026.1 hPa 10.7 mm 12.0°
4
0%
20:00
21°
1025.6 hPa 10.7 mm 13.8°
4
0%
23:00
18°
1026.3 hPa 10.7 mm 12.5°
4
42%
 04:54     21:53    Daglengte: 16:59 Dinsdag 25 Jun
02:00
16°
1027.0 hPa 10.7 mm 11.2°
3
84%
05:00
17°
1026.8 hPa 10.7 mm 11.5°
3
87%
08:00
18°
1026.8 hPa 10.7 mm 12.0°
3
90%
11:00
23°
1026.4 hPa 10.7 mm 13.0°
4
81%
14:00
28°
Voelt als: 27.4°
1026.0 hPa 10.7 mm 12.4°
4
72%
17:00
27°
1025.4 hPa 10.7 mm 12.6°
4
42%
20:00
25°
1024.8 hPa 10.7 mm 13.1°
4
11%
23:00
21°
1025.4 hPa 10.7 mm 12.0°
4
15%
 04:54     21:53    Daglengte: 16:59 Woensdag 26 Jun
02:00
18°
1025.8 hPa 10.7 mm 10.9°
4
20%
05:00
19°
1025.3 hPa 10.7 mm 11.2°
4
33%
08:00
20°
1024.8 hPa 10.7 mm 11.3°
4
45%
11:00
25°
1024.0 hPa 10.7 mm 12.3°
4
66%
14:00
30°
Voelt als: 29.1°
1023.1 hPa 10.7 mm 12.5°
4
86%
17:00
29°
Voelt als: 28.5°
1021.6 hPa   14.2°
3
71%
20:00
27°
1020.2 hPa 21.5 mm 15.6°
3
55%
 04:55     21:53    Daglengte: 16:58 Donderdag 27 Jun
02:00
20°
1018.8 hPa 21.5 mm 11.2°
2
2%
08:00
23°
1016.0 hPa 21.5 mm 13.6°
1
0%
14:00
33°
1014.4 hPa 21.5 mm 17.0°
2
0%
20:00
30°
1013.0 hPa 21.5 mm 19.3°
3
16%
 04:55     21:53    Daglengte: 16:58 Vrijdag 28 Jun
02:00
21°
1013.3 hPa 21.5 mm 15.1°
2
1%
08:00
23°
1011.6 hPa 21.5 mm 16.4°
3
71%
14:00
32°
1010.6 hPa 21.5 mm 19.6°
7
15%
20:00
24°
1012.6 hPa 22.1 mm 17.5°
4
76%
 04:56     21:53    Daglengte: 16:57 Zaterdag 29 Jun
02:00
17°
1013.0 hPa 23.0 mm 16.1°
3
67%
08:00
16°
1012.5 hPa 23.0 mm 12.8°
4
0%
14:00
24°
1015.1 hPa   13.9°
2
25%
20:00
22°
1014.4 hPa 0.2 mm 15.3°
3
26%
 04:56     21:52    Daglengte: 16:56 Zondag 30 Jun
02:00
15°
1015.0 hPa 0.4 mm 11.8°
1
20%
08:00
17°
1014.7 hPa 0.3 mm 12.8°
1
25%
14:00
23°
1013.9 hPa 0.4 mm 13.9°
3
31%
20:00
22°
1012.9 hPa 0.5 mm 15.3°
2
27%
 04:57     21:52    Daglengte: 16:55 Maandag 01 Jul
02:00
14°
1013.5 hPa 1.0 mm 12.0°
2
22%
08:00
16°
1013.5 hPa 1.2 mm 12.7°
2
28%
14:00
22°
1013.1 hPa 1.3 mm 13.3°
3
37%
20:00
20°
1012.5 hPa 1.2 mm 14.2°
3
38%
 04:58     21:52    Daglengte: 16:54 Dinsdag 02 Jul
02:00
14°
1012.7 hPa 0.4 mm 11.7°
2
23%
08:00
16°
1012.0 hPa 0.2 mm 13.0°
4
26%
14:00
21°
1011.8 hPa 0.7 mm 13.9°
5
40%
20:00
20°
1012.0 hPa 1.3 mm 14.4°
3
42%
 04:59     21:51    Daglengte: 16:52 Woensdag 03 Jul
02:00
14°
1012.9 hPa 0.4 mm 11.7°
2
21%
08:00
16°
1013.0 hPa 0.1 mm 13.2°
3
27%
14:00
22°
1012.9 hPa 0.8 mm 13.9°
4
44%
20:00
20°
1012.7 hPa 2.1 mm 14.7°
2
56%
 05:00     21:51    Daglengte: 16:51 Donderdag 04 Jul
02:00
14°
1013.8 hPa 0.6 mm 12.4°
2
31%
08:00
16°
1014.6 hPa 0.8 mm 13.3°
3
28%
14:00
21°
1014.8 hPa 0.9 mm 13.8°
3
40%
  CAPE Lifted Index Hail Supercell Tornado SRH 3km CL BTM PRES CL TOP PRES Swiss DWD icon SMHI TS
 04:52     21:52    Daglengte: 17:00 Vandaag
19:00 618 J/kg -2.7 K 0 % 0 % 0 % 0 m²/s² 0 0 -0.6 3
20:00 922 J/kg -4.4 K 0 % 0 % 0 % 0 m²/s² 0 0 -3.77 3
21:00 315 J/kg -3.5 K 0 % 0 % 0 % 0 m²/s² 0 0 -3.41 3
22:00 0 J/kg -4.1 K 0 % 0 % 0 % 0 m²/s² 0 0 -2.84 2
23:00 192 J/kg -3.6 K 0 % 0 % 0 % 0 m²/s² 0 0 -1.38 3
 04:52     21:53    Daglengte: 17:01 Morgen
00:00 370 J/kg -2.7 K 0 % 0 % 0 % 0 m²/s² 0 0 -0.87 1
01:00 246 J/kg -2.8 K 0 % 0 % 0 % 0 m²/s² 0 0 -1.21 1
02:00 183 J/kg -4.5 K 0 % 0 % 0 % 0 m²/s² 0 0 -3.45 0
03:00 0 J/kg -3.5 K 0 % 0 % 0 % 0 m²/s² 0 0 -3.38 0
04:00 72 J/kg -3.4 K 0 % 0 % 0 % 0 m²/s² 0 0 -2.41 1
05:00 0 J/kg -1.7 K 0 % 0 % 0 % 0 m²/s² 0 0 -0.89 1
06:00 0 J/kg -2.0 K 0 % 0 % 0 % 0 m²/s² 0 0 -1.19 1
07:00 72 J/kg -1.2 K 0 % 0 % 0 % 0 m²/s² 0 0 -0.21 3
08:00 281 J/kg -1.3 K 0 % 0 % 0 % 0 m²/s² 0 0 0.92 3
09:00 472 J/kg -1.8 K 0 % 0 % 0 % 0 m²/s² 0 0 0.48 3
10:00 500 J/kg -1.8 K 0 % 0 % 0 % 0 m²/s² 0 0 0.27 80
11:00 572 J/kg -2.1 K 0 % 0 % 0 % 0 m²/s² 0 0 -0.15 95
12:00 772 J/kg -2.7 K 0 % 0 % 0 % 0 m²/s² 0 0 -1.11 95
13:00 897 J/kg -3.1 K 0 % 0 % 0 % 0 m²/s² 0 0 -2.02 3
14:00 958 J/kg -3.2 K 0 % 0 % 0 % 0 m²/s² 0 0 -2.15 80
15:00 986 J/kg -3.5 K 0 % 0 % 0 % 0 m²/s² 0 0 -2.27 80
16:00 829 J/kg -3.1 K 0 % 0 % 0 % 0 m²/s² 0 0 -1.96 3
17:00 594 J/kg -2.2 K 0 % 0 % 0 % 0 m²/s² 0 0 -1.06 3
18:00 186 J/kg -0.8 K 0 % 0 % 0 % 0 m²/s² 0 0 -0.02 2
19:00 71 J/kg -0.3 K 0 % 0 % 0 % 0 m²/s² 0 0 1.2 3
20:00 8 J/kg 0.6 K 0 % 0 % 0 % 0 m²/s² 0 0 2.73 3
21:00 0 J/kg 0.9 K 0 % 0 % 0 % 0 m²/s² 0 0 1.59 3
22:00 0 J/kg 1.7 K 0 % 0 % 0 % 0 m²/s² 0 0 1.73 3
23:00 0 J/kg 2.0 K 0 % 0 % 0 % 0 m²/s² 0 0 3.29 3
 04:52     21:53    Daglengte: 17:01 Vrijdag 21 Jun
00:00 0 J/kg 2.5 K 0 % 0 % 0 % 0 m²/s² 0 0 4.21 3
01:00 0 J/kg 3.0 K 0 % 0 % 0 % 0 m²/s² 0 0 5.1 3
02:00 0 J/kg 3.4 K 0 % 0 % 0 % 0 m²/s² 0 0 6.79 3
03:00 0 J/kg 3.9 K 0 % 0 % 0 % 0 m²/s² 0 0 9.03 2
04:00 2 J/kg 4.3 K 0 % 0 % 0 % 0 m²/s² 0 0 9.97 2
05:00 2 J/kg 4.7 K 0 % 0 % 0 % 0 m²/s² 0 0 10.55 2
06:00 2 J/kg 5.0 K 0 % 0 % 0 % 0 m²/s² 0 0 10.67 2
07:00 2 J/kg 4.9 K 0 % 0 % 0 % 0 m²/s² 0 0 10.12 2
08:00 2 J/kg 5.0 K 0 % 0 % 0 % 0 m²/s² 0 0 10.1 2
09:00 2 J/kg 5.1 K 0 % 0 % 0 % 0 m²/s² 0 0 9.81 1
10:00 6 J/kg 3.8 K 0 % 0 % 0 % 0 m²/s² 0 0 8.18 2
11:00 32 J/kg 3.4 K 0 % 0 % 0 % 0 m²/s² 0 0 7.36 2
12:00 24 J/kg 3.8 K 0 % 0 % 0 % 0 m²/s² 0 0 7.55 3
13:00 10 J/kg 4.6 K 0 % 0 % 0 % 0 m²/s² 0 0 8.35 3
14:00 31 J/kg 4.0 K 0 % 0 % 0 % 0 m²/s² 0 0 7.75 3
15:00 64 J/kg 3.6 K 0 % 0 % 0 % 0 m²/s² 0 0 7.35 3
16:00 102 J/kg 3.5 K 0 % 0 % 0 % 0 m²/s² 0 0 7.76 3
17:00 163 J/kg 2.6 K 0 % 0 % 0 % 0 m²/s² 0 0 6.98 3
18:00 15 J/kg 4.6 K 0 % 0 % 0 % 0 m²/s² 0 0 10.48 2
19:00 0 J/kg 5.6 K 0 % 0 % 0 % 0 m²/s² 0 0 11.33 1
20:00 8 J/kg 5.7 K 0 % 0 % 0 % 0 m²/s² 0 0 8.85 2
21:00 0 J/kg 7.5 K 0 % 0 % 0 % 0 m²/s² 0 0 11.19 1
22:00 0 J/kg 8.4 K 0 % 0 % 0 % 0 m²/s² 0 0 14.34 0
23:00 0 J/kg 8.2 K 0 % 0 % 0 % 0 m²/s² 0 0 14.17 0
 04:52     21:53    Daglengte: 17:01 Zaterdag 22 Jun
00:00 0 J/kg 8.9 K 0 % 0 % 0 % 0 m²/s² 0 0 14.69 0
01:00 0 J/kg 9.7 K 0 % 0 % 0 % 0 m²/s² 0 0 15.49 0
02:00 0 J/kg 10.9 K 0 % 0 % 0 % 0 m²/s² 0 0 16.69 0
03:00 0 J/kg 10.9 K 0 % 0 % 0 % 0 m²/s² 0 0 16.54 0
04:00 0 J/kg 12.0 K 0 % 0 % 0 % 0 m²/s² 0 0 17.79 0
05:00 0 J/kg 12.4 K 0 % 0 % 0 % 0 m²/s² 0 0 18.04 1
06:00 0 J/kg 12.9 K 0 % 0 % 0 % 0 m²/s² 0 0 18.87 1
07:00 0 J/kg 12.2 K 0 % 0 % 0 % 0 m²/s² 0 0 18.17 1
08:00 0 J/kg 10.6 K 0 % 0 % 0 % 0 m²/s² 0 0 16.57 2
09:00 0 J/kg 9.9 K 0 % 0 % 0 % 0 m²/s² 0 0 15.87 2
10:00 0 J/kg 9.8 K 0 % 0 % 0 % 0 m²/s² 0 0 16.13 1
11:00 0 J/kg 9.2 K 0 % 0 % 0 % 0 m²/s² 0 0 15.56 1
12:00 0 J/kg 8.8 K 0 % 0 % 0 % 0 m²/s² 0 0 15.34 2
13:00 0 J/kg 8.9 K 0 % 0 % 0 % 0 m²/s² 0 0 15.65 0
14:00 0 J/kg 8.2 K 0 % 0 % 0 % 0 m²/s² 0 0 14.95 2
15:00 0 J/kg 7.8 K 0 % 0 % 0 % 0 m²/s² 0 0 15 0
16:00 0 J/kg 7.9 K 0 % 0 % 0 % 0 m²/s² 0 0 15.61 1
17:00 0 J/kg 7.7 K 0 % 0 % 0 % 0 m²/s² 0 0 15.71 1
18:00 0 J/kg 8.0 K 0 % 0 % 0 % 0 m²/s² 0 0 16.31 1
Temp Baro Wind Neerslag
  EWN Forecast EWN WRFDA DWD ICON FMI HIRLAM MET Norway GFS
 04:52     21:52    Daglengte: 17:00 Vandaag
20:00 25.7° 1005.8 hPa 2.1 m/s 0.0 mm 23.7° 1005.8 hPa 4.9 m/s 2.9 mm 27.1° 1005.7 hPa 2.6 m/s -1.7 mm 27.1° 1005.8 hPa 3.1 m/s 0.0 mm 22.8° 1006.1 hPa 1.3 m/s 0.3 mm 21.2° 1006.2 hPa 8.7 m/s
23:00 22.9° 1006.2 hPa 2.5 m/s 0.0 mm 20.9° 1006.5 hPa 2.6 m/s 15.5 mm 23.4° 1006.1 hPa 1.4 m/s 0.0 mm 23.0° 1006.2 hPa 2.3 m/s 0.0 mm 22.6° 1006.5 hPa 4.3 m/s 0.0 mm 16.4° 1007.2 hPa 1.7 m/s
 04:52     21:53    Daglengte: 17:01 Morgen
02:00 19.2° 1006.5 hPa 1.8 m/s 0.0 mm 19.2° 1006.5 hPa 2.0 m/s 17.7 mm 20.2° 1006.5 hPa 0.7 m/s 0.0 mm 19.2° 1006.2 hPa 1.8 m/s 0.0 mm 18.6° 1006.7 hPa 2.3 m/s 0.0 mm 15.6° 1007.0 hPa 2.1 m/s
05:00 17.7° 1006.7 hPa 2.1 m/s 0.0 mm 17.3° 1006.3 hPa 1.4 m/s 22.1 mm 18.9° 1006.9 hPa 1.9 m/s 0.0 mm 17.4° 1005.5 hPa 1.3 m/s 0.0 mm 17.3° 1007.2 hPa 2.4 m/s 0.0 mm 15.3° 1006.3 hPa 2.5 m/s
08:00 19.5° 1007.6 hPa 2.9 m/s 0.0 mm 20.0° 1006.8 hPa 2.0 m/s 26.0 mm 19.6° 1007.5 hPa 2.9 m/s 0.0 mm 19.6° 1006.2 hPa 2.3 m/s 0.0 mm 19.5° 1008.1 hPa 4.4 m/s 0.0 mm 18.8° 1007.2 hPa 4.3 m/s
11:00 21.0° 1008.8 hPa 4.3 m/s 0.0 mm 22.3° 1007.3 hPa 4.6 m/s 26.1 mm 19.5° 1009.0 hPa 3.0 m/s 1.4 mm 21.2° 1007.2 hPa 5.2 m/s 0.0 mm 20.9° 1009.2 hPa 3.8 m/s 0.5 mm 19.3° 1008.6 hPa 5.2 m/s
14:00 21.2° 1009.7 hPa 4.9 m/s 7.0 mm 21.0° 1009.0 hPa 5.7 m/s 26.8 mm 19.6° 1010.1 hPa 3.2 m/s 1.8 mm 20.5° 1009.5 hPa 6.7 m/s 0.0 mm 21.3° 1009.7 hPa 4.4 m/s 2.2 mm 21.3° 1009.7 hPa 5.5 m/s
17:00 20.6° 1010.3 hPa 4.0 m/s 2.2 mm 21.1° 1009.6 hPa 4.7 m/s 29.9 mm 20.3° 1010.6 hPa 3.3 m/s 0.3 mm 20.7° 1009.8 hPa 4.7 m/s 0.0 mm 19.6° 1010.6 hPa 3.4 m/s 7.4 mm 20.3° 1010.5 hPa 4.0 m/s
20:00 19.5° 1011.0 hPa 3.0 m/s 2.1 mm 19.7° 1010.6 hPa 4.0 m/s 30.7 mm 19.2° 1012.0 hPa 2.4 m/s 0.0 mm 19.2° 1010.5 hPa 4.2 m/s 0.0 mm 19.2° 1011.1 hPa 2.0 m/s 0.0 mm 17.9° 1011.8 hPa 2.5 m/s
23:00 17.0° 1012.7 hPa 2.0 m/s 0.0 mm 15.5° 1012.4 hPa 2.2 m/s 31.3 mm 17.2° 1012.9 hPa 1.4 m/s 0.0 mm 16.8° 1012.0 hPa 2.7 m/s 0.0 mm 16.6° 1012.9 hPa 1.8 m/s 0.0 mm 13.5° 1013.5 hPa 2.3 m/s
 04:52     21:53    Daglengte: 17:01 Vrijdag 21 Jun
02:00 15.4° 1013.7 hPa 1.7 m/s 0.0 mm 12.5° 1013.5 hPa 2.5 m/s 32.2 mm 15.9° 1014.0 hPa 0.9 m/s 0.1 mm 14.5° 1012.7 hPa 1.4 m/s 0.0 mm 15.3° 1014.0 hPa 2.3 m/s 0.4 mm 11.8° 1014.9 hPa 1.6 m/s
05:00 14.9° 1014.6 hPa 2.1 m/s 0.0 mm 11.5° 1014.5 hPa 1.7 m/s 32.2 mm 15.2° 1014.9 hPa 1.9 m/s 0.0 mm 15.4° 1013.7 hPa 2.1 m/s 0.0 mm 13.6° 1014.9 hPa 2.2 m/s 0.0 mm 10.7° 1015.6 hPa 1.4 m/s
08:00 15.7° 1016.0 hPa 2.6 m/s 0.0 mm 11.8° 1015.5 hPa 0.5 m/s 32.3 mm 16.3° 1016.3 hPa 3.2 m/s 0.0 mm 15.9° 1015.1 hPa 2.3 m/s 0.0 mm 15.8° 1016.5 hPa 2.7 m/s 0.0 mm 14.6° 1016.6 hPa 2.2 m/s
11:00 18.4° 1016.8 hPa 2.8 m/s 0.0 mm 17.8° 1016.1 hPa 1.4 m/s 32.3 mm 19.4° 1017.1 hPa 4.2 m/s 0.0 mm 18.3° 1015.9 hPa 1.7 m/s 0.0 mm 18.2° 1017.6 hPa 2.8 m/s 0.0 mm 18.8° 1017.4 hPa 3.6 m/s
14:00 20.1° 1016.7 hPa 4.1 m/s 0.0 mm 20.7° 1015.8 hPa 3.4 m/s 32.3 mm 20.0° 1017.0 hPa 4.2 m/s 0.0 mm 20.1° 1016.2 hPa 3.5 m/s 0.0 mm 19.5° 1017.6 hPa 3.8 m/s 0.0 mm 20.6° 1017.5 hPa 4.4 m/s
17:00 19.4° 1018.1 hPa 4.9 m/s 0.0 mm 19.6° 1016.5 hPa 6.8 m/s 32.3 mm 20.1° 1018.3 hPa 4.3 m/s 0.0 mm 18.2° 1018.2 hPa 3.8 m/s 0.0 mm 18.8° 1018.3 hPa 4.3 m/s
20:00 17.9° 1019.4 hPa 3.9 m/s 0.0 mm 18.8° 1017.5 hPa 3.9 m/s 32.3 mm 18.0° 1019.3 hPa 3.6 m/s 0.0 mm 17.3° 1019.6 hPa 3.3 m/s 0.0 mm 16.5° 1019.5 hPa 3.6 m/s
23:00 14.8° 1021.1 hPa 2.7 m/s 0.0 mm 15.5° 1019.1 hPa 3.1 m/s 32.3 mm 14.5° 1021.4 hPa 1.8 m/s 0.0 mm 14.6° 1021.3 hPa 2.7 m/s 0.0 mm 10.9° 1021.8 hPa 2.0 m/s
 04:52     21:53    Daglengte: 17:01 Zaterdag 22 Jun
02:00 13.5° 1022.4 hPa 2.0 m/s 0.0 mm 12.1° 1020.3 hPa 2.3 m/s 32.3 mm 12.5° 1022.8 hPa 1.4 m/s 0.0 mm 13.8° 1022.6 hPa 1.9 m/s 0.0 mm 9.1° 1022.8 hPa 1.5 m/s
05:00 10.5° 1023.2 hPa 1.7 m/s 0.0 mm 10.1° 1021.5 hPa 2.1 m/s 32.3 mm 11.2° 1023.5 hPa 1.0 m/s 0.0 mm 10.1° 1023.4 hPa 1.7 m/s 0.0 mm 8.0° 1023.2 hPa 1.3 m/s
08:00 14.2° 1024.5 hPa 1.8 m/s 0.0 mm 14.2° 1022.5 hPa 2.7 m/s 32.3 mm 14.3° 1024.8 hPa 0.9 m/s 0.0 mm 14.4° 1024.6 hPa 1.8 m/s 0.0 mm 13.3° 1024.7 hPa 1.9 m/s
11:00 17.6° 1024.4 hPa 1.8 m/s 0.0 mm 18.2° 1021.9 hPa 3.0 m/s 32.3 mm 18.1° 1025.1 hPa 1.5 m/s 0.0 mm 17.2° 1024.4 hPa 1.7 m/s 17.7° 1024.7 hPa 2.6 m/s
14:00 20.6° 1024.2 hPa 1.8 m/s 0.0 mm 20.8° 1021.5 hPa 3.9 m/s 32.3 mm 20.8° 1024.9 hPa 1.5 m/s 0.0 mm 20.1° 1024.3 hPa 1.6 m/s 20.2° 1024.3 hPa 3.2 m/s
17:00 20.3° 1023.5 hPa 2.8 m/s 0.0 mm 21.4° 1020.6 hPa 4.3 m/s 32.3 mm 21.8° 1023.8 hPa 1.6 m/s 0.0 mm 19.1° 1024.0 hPa 2.9 m/s 19.7° 1023.5 hPa 3.9 m/s
20:00 18.6° 1023.4 hPa 4.1 m/s 0.0 mm 19.1° 1021.1 hPa 5.4 m/s 32.3 mm 19.8° 1024.0 hPa 2.6 m/s 0.0 mm 18.0° 1023.6 hPa 4.2 m/s 16.2° 1023.4 hPa 4.0 m/s
23:00 13.7° 1024.7 hPa 3.0 m/s 10.7 mm 14.0° 1024.7 hPa 3.0 m/s 10.9° 1024.6 hPa 2.7 m/s 10.7 mm
 04:53     21:53    Daglengte: 17:00 Zondag 23 Jun
02:00 11.8° 1025.2 hPa 2.4 m/s 10.7 mm 12.0° 1025.2 hPa 2.4 m/s 9.5° 1024.7 hPa 2.5 m/s 10.7 mm
05:00 13.3° 1025.6 hPa 2.5 m/s 10.7 mm 13.8° 1025.6 hPa 2.5 m/s 8.3° 1025.0 hPa 2.5 m/s 10.7 mm
08:00 15.3° 1025.9 hPa 2.6 m/s 10.7 mm 15.5° 1026.0 hPa 2.6 m/s 13.0° 1025.3 hPa 3.0 m/s 10.7 mm
11:00 18.7° 1025.9 hPa 2.8 m/s 10.7 mm 18.8° 1025.9 hPa 2.8 m/s 18.6° 1025.9 hPa 3.4 m/s 10.7 mm
14:00 22.0° 1025.8 hPa 3.0 m/s 10.7 mm 22.0° 1025.8 hPa 3.0 m/s 21.5° 1025.5 hPa 3.5 m/s 10.7 mm
17:00 20.8° 1025.5 hPa 3.6 m/s 10.7 mm 20.6° 1025.5 hPa 3.6 m/s 22.0° 1024.4 hPa 3.2 m/s 10.7 mm
20:00 19.2° 1025.2 hPa 4.2 m/s 10.7 mm 19.3° 1025.3 hPa 4.2 m/s 18.3° 1024.6 hPa 4.1 m/s 10.7 mm
23:00 16.4° 1026.1 hPa 3.5 m/s 10.7 mm 16.6° 1026.1 hPa 3.6 m/s 14.2° 1025.6 hPa 2.8 m/s 10.7 mm
 04:53     21:53    Daglengte: 17:00 Maandag 24 Jun
02:00 13.9° 1026.8 hPa 3.0 m/s 10.7 mm 14.0° 1026.9 hPa 3.0 m/s 12.6° 1025.7 hPa 2.7 m/s 10.7 mm
05:00 14.5° 1026.9 hPa 3.3 m/s 10.7 mm 14.8° 1027.1 hPa 3.4 m/s 11.1° 1025.3 hPa 2.5 m/s 10.7 mm
08:00 15.7° 1027.1 hPa 3.6 m/s 10.7 mm 15.7° 1027.2 hPa 3.7 m/s 15.6° 1026.0 hPa 3.0 m/s 10.7 mm
11:00 19.7° 1026.8 hPa 3.5 m/s 10.7 mm 19.5° 1026.9 hPa 3.5 m/s 21.8° 1026.1 hPa 3.1 m/s 10.7 mm
14:00 23.5° 1026.5 hPa 3.4 m/s 10.7 mm 23.4° 1026.6 hPa 3.4 m/s 24.8° 1025.6 hPa 3.0 m/s 10.7 mm
17:00 22.3° 1026.1 hPa 3.9 m/s 10.7 mm 22.0° 1026.2 hPa 3.9 m/s 25.1° 1025.2 hPa 3.7 m/s 10.7 mm
20:00 20.7° 1025.6 hPa 4.4 m/s 10.7 mm 20.6° 1025.7 hPa 4.4 m/s 21.4° 1025.0 hPa 4.0 m/s 10.7 mm
23:00 18.0° 1026.3 hPa 3.7 m/s 10.7 mm 18.2° 1026.3 hPa 3.8 m/s 16.0° 1026.2 hPa 3.0 m/s 10.7 mm
 04:54     21:53    Daglengte: 16:59 Dinsdag 25 Jun
02:00 15.7° 1027.0 hPa 3.2 m/s 10.7 mm 15.8° 1027.0 hPa 3.2 m/s 14.9° 1026.4 hPa 2.7 m/s 10.7 mm
05:00 16.5° 1026.8 hPa 3.3 m/s 10.7 mm 16.8° 1026.9 hPa 3.4 m/s 13.6° 1025.8 hPa 2.7 m/s 10.7 mm
08:00 17.8° 1026.8 hPa 3.5 m/s 10.7 mm 17.8° 1026.8 hPa 3.5 m/s 18.1° 1026.3 hPa 3.3 m/s 10.7 mm
11:00 22.9° 1026.4 hPa 4.0 m/s 10.7 mm 22.8° 1026.4 hPa 4.0 m/s 23.8° 1026.4 hPa 4.0 m/s 10.7 mm
14:00 27.8° 1026.0 hPa 4.4 m/s 10.7 mm 27.8° 1026.0 hPa 4.5 m/s 27.6° 1025.6 hPa 3.9 m/s 10.7 mm
17:00 26.6° 1025.4 hPa 4.4 m/s 10.7 mm 26.5° 1025.4 hPa 4.5 m/s 28.6° 1025.0 hPa 3.3 m/s 10.7 mm
20:00 25.0° 1024.8 hPa 4.4 m/s 10.7 mm 25.1° 1024.8 hPa 4.5 m/s 24.2° 1024.7 hPa 3.8 m/s 10.7 mm
23:00 21.5° 1025.4 hPa 4.1 m/s 10.7 mm 21.8° 1025.3 hPa 4.2 m/s 18.1° 1025.5 hPa 3.0 m/s 10.7 mm
 04:54     21:53    Daglengte: 16:59 Woensdag 26 Jun
02:00 18.3° 1025.8 hPa 3.7 m/s 10.7 mm 18.5° 1025.9 hPa 3.8 m/s 16.6° 1025.2 hPa 2.5 m/s 10.7 mm
05:00 19.2° 1025.3 hPa 3.9 m/s 10.7 mm 19.5° 1025.3 hPa 4.0 m/s 15.4° 1025.0 hPa 2.4 m/s 10.7 mm
08:00 20.4° 1024.8 hPa 4.1 m/s 10.7 mm 20.5° 1024.8 hPa 4.2 m/s 19.0° 1025.1 hPa 3.2 m/s 10.7 mm
11:00 25.3° 1024.0 hPa 4.1 m/s 10.7 mm 25.4° 1023.9 hPa 4.2 m/s 23.3° 1025.1 hPa 3.5 m/s 10.7 mm
14:00 30.0° 1023.1 hPa 4.1 m/s 10.7 mm 30.4° 1023.0 hPa 4.1 m/s 25.8° 1024.2 hPa 3.6 m/s 10.7 mm
17:00 28.8° 1021.6 hPa 3.4 m/s 10.7 mm 29.1° 1021.5 hPa 3.4 m/s 25.4° 1022.8 hPa 3.6 m/s 10.7 mm
20:00 27.3° 1020.2 hPa 2.8 m/s 10.7 mm 27.9° 1020.0 hPa 2.7 m/s 20.6° 1022.1 hPa 3.5 m/s 10.7 mm
 04:55     21:53    Daglengte: 16:58 Donderdag 27 Jun
02:00 19.7° 1018.8 hPa 2.4 m/s 10.7 mm 20.2° 1018.6 hPa 2.5 m/s 13.9° 1021.0 hPa 1.9 m/s 10.7 mm
08:00 23.0° 1016.0 hPa 1.3 m/s 10.7 mm 23.5° 1015.7 hPa 1.3 m/s 17.6° 1019.1 hPa 1.8 m/s 10.7 mm
14:00 33.4° 1014.4 hPa 2.3 m/s 10.7 mm 34.0° 1014.2 hPa 2.3 m/s 26.3° 1017.0 hPa 2.1 m/s 10.7 mm
20:00 29.8° 1013.0 hPa 2.8 m/s 10.7 mm 30.4° 1012.8 hPa 2.8 m/s 22.8° 1014.9 hPa 3.1 m/s 10.7 mm
 04:55     21:53    Daglengte: 16:58 Vrijdag 28 Jun
02:00 21.1° 1013.3 hPa 2.2 m/s 10.7 mm 21.6° 1013.2 hPa 2.2 m/s 15.3° 1014.9 hPa 1.8 m/s 10.7 mm
08:00 22.6° 1011.6 hPa 2.7 m/s 10.7 mm 22.9° 1011.5 hPa 2.8 m/s 19.1° 1013.1 hPa 1.8 m/s 10.7 mm
14:00 31.9° 1010.6 hPa 7.2 m/s 10.7 mm 32.1° 1010.5 hPa 7.8 m/s 29.2° 1011.3 hPa 0.9 m/s 10.7 mm
20:00 24.1° 1012.6 hPa 4.5 m/s 11.3 mm 24.4° 1012.8 hPa 4.5 m/s 20.4° 1010.2 hPa 4.3 m/s 11.3 mm
 04:56     21:53    Daglengte: 16:57 Zaterdag 29 Jun
02:00 17.1° 1013.0 hPa 2.6 m/s 11.5 mm 17.5° 1013.0 hPa 2.5 m/s 13.1° 1012.4 hPa 3.3 m/s 11.5 mm
08:00 15.8° 1012.5 hPa 4.3 m/s 11.5 mm 15.8° 1012.5 hPa 4.3 m/s 11.5 mm
14:00 24.3° 1015.1 hPa 2.2 m/s 0.0 mm
20:00 22.3° 1014.4 hPa 2.6 m/s 0.2 mm
 04:56     21:52    Daglengte: 16:56 Zondag 30 Jun
02:00 14.9° 1015.0 hPa 1.3 m/s 0.4 mm
08:00 16.8° 1014.7 hPa 1.5 m/s 0.3 mm
14:00 23.1° 1013.9 hPa 3.0 m/s 0.4 mm
20:00 21.5° 1012.9 hPa 2.3 m/s 0.5 mm
 04:57     21:52    Daglengte: 16:55 Maandag 01 Jul
02:00 14.3° 1013.5 hPa 1.8 m/s 1.0 mm
08:00 15.8° 1013.5 hPa 2.5 m/s 1.2 mm
14:00 22.1° 1013.1 hPa 3.1 m/s 1.3 mm
20:00 20.5° 1012.5 hPa 2.6 m/s 1.2 mm
 04:58     21:52    Daglengte: 16:54 Dinsdag 02 Jul
02:00 14.4° 1012.7 hPa 1.7 m/s 0.4 mm
08:00 16.3° 1012.0 hPa 3.7 m/s 0.2 mm
14:00 21.3° 1011.8 hPa 4.7 m/s 0.7 mm
20:00 19.7° 1012.0 hPa 3.2 m/s 1.3 mm
 04:59     21:51    Daglengte: 16:52 Woensdag 03 Jul
02:00 13.8° 1012.9 hPa 1.8 m/s 0.4 mm
08:00 15.9° 1013.0 hPa 2.6 m/s 0.1 mm
14:00 21.6° 1012.9 hPa 3.6 m/s 0.8 mm
20:00 20.3° 1012.7 hPa 2.5 m/s 2.1 mm
 05:00     21:51    Daglengte: 16:51 Donderdag 04 Jul
02:00 14.0° 1013.8 hPa 2.1 m/s 0.6 mm
08:00 15.8° 1014.6 hPa 3.0 m/s 0.8 mm
14:00 21.3° 1014.8 hPa 3.5 m/s 0.9 mm
FMI Hirlam - 7.5 km EWN WRFDA - 12 km DWD ICON - 7 km GFS - 25 km Basiskaart






























































Updatetijd (Europe/Amsterdam) Resolutie Lengte Stap
FMI Hirlam 19:00, 01:00, 07:00, 13:00 7.5 km 49h 1h
EWN WRFDA 16:00, 22:00, 04:00, 10:00 12 km 73h 1h
DWD ICON 17:45, 23:45, 05:45, 11:45 7 km 75h 1h
GFS 14:30, 20:30, 02:30, 08:30 25 km 237h 3h
30+ mm
25-30 mm
20-25 mm
15-20 mm
10-15 mm
6-10 mm
4-6 mm
2-4 mm
1-2 mm
0.5-1 mm
0.2-0.5 mm
0.1-0.2 mm
30+ mm
25-30 mm
20-25 mm
15-20 mm
10-15 mm
6-10 mm
4-6 mm
2-4 mm
1-2 mm
0.5-1 mm
0.2-0.5 mm
0.1-0.2 mm
Sneeuwval
Natte sneeuw
Hagel
Vorst
30+ mm
25-30 mm
20-25 mm
15-20 mm
10-15 mm
6-10 mm
4-6 mm
2-4 mm
1-2 mm
0.5-1 mm
0.2-0.5 mm
0.1-0.2 mm
Sneeuwval
Natte sneeuw
Hagel
Vorst
Onweer
50 mm
40 mm
30 mm
26 mm
22 mm
18 mm
14 mm
10 mm
9 mm
8 mm
7 mm
6 mm
5 mm
4.5 mm
4 mm
3.5 mm
3 mm
2.5 mm
2 mm
1.5 mm
1 mm
0.8 mm
0.6 mm
0.4 mm
0.2 mm
0.05 mm
35°
30°
25°
20°
15°
10°
-5°
-10°
-15°
-20°
-25°
-30°
-35°
33> m/s
29 m/s
25 m/s
21 m/s
17 m/s
14 m/s
11 m/s
8 m/s
5 m/s
3 m/s
0 m/s
2600 J/kg
2400 J/kg
2200 J/kg
2000 J/kg
1800 J/kg
1600 J/kg
1400 J/kg
1200 J/kg
1000 J/kg
800 J/kg
600 J/kg
400 J/kg
200 J/kg
70 dBZ
65 dBZ
60 dBZ
55 dBZ
50 dBZ
45 dBZ
40 dBZ
35 dBZ
30 dBZ
25 dBZ
20 dBZ
15 dBZ
10 dBZ
5 dBZ
-1 K
-2 K
-3 K
-4 K
-5 K
-6 K
-7 K
-8 K
-9 K
950 m²/s²
900 m²/s²
850 m²/s²
800 m²/s²
750 m²/s²
700 m²/s²
650 m²/s²
600 m²/s²
550 m²/s²
500 m²/s²
450 m²/s²
400 m²/s²
350 m²/s²
300 m²/s²
250 m²/s²
200 m²/s²
150 m²/s²
100 m²/s²
46 m/s
44 m/s
42 m/s
40 m/s
38 m/s
36 m/s
34 m/s
32 m/s
30 m/s
28 m/s
26 m/s
24 m/s
22 m/s
20 m/s
16 m/s
12 m/s
8 m/s
4 m/s
30 m/s
28 m/s
26 m/s
24 m/s
22 m/s
20 m/s
18 m/s
16 m/s
14 m/s
12 m/s
10 m/s
8 m/s
6 m/s
4 m/s
2 m/s
3.0
2.8
2.6
2.4
2.2
2.0
1.8
1.6
1.4
1.2
1.0
0.8
0.6
0.4
0.2
15
14
13
12
11
10
9
8
7
6
5
4
3
2
1
90%
80%
70%
60%
50%
40%
30%
20%
10%
42
40
38
36
34
32
30
28
26
24
22
20
18
16
14
12
90+ cm
80-90 cm
70-80 cm
60-70 cm
50-60 cm
40-50 cm
30-40 cm
20-30 cm
10-20 cm
1-10 cm
Sneeuwval
Natte sneeuw
Regen
>120 mm
115 mm
110 mm
105 mm
100 mm
95 mm
90 mm
85 mm
80 mm
75 mm
70 mm
65 mm
60 mm
55 mm
50 mm
45 mm
45 mm
40 mm
35 mm
30 mm
25 mm
20 mm
15 mm
10 mm
5 mm
0.1 mm
960 hPa
880 hPa
800 hPa
720 hPa
640 hPa
560 hPa
584 gpdm
568 gpdm
552 gpdm
536 gpdm
520 gpdm
504 gpdm
488 gpdm
Extreem zwaar Noodweer Kans op onweer
15% 15% 5% 50% 15%

Dag




Kaart






</